Time,TemperatureF,DewpointF,PressureIn,WindDirection,WindDirectionDegrees,WindSpeedMPH,WindSpeedGustMPH,Humidity,HourlyPrecipIn,Conditions,Clouds,dailyrainin,SoftwareType,DateUTC
2013-10-03 00:00:00,49.2,35.5,26.86,North,0,0.0,0.0,59,0.00,,,0.00,VWS V14.01,2013-10-03 06:00:00,
2013-10-03 00:05:00,49.2,35.5,26.86,North,0,0.0,0.0,59,0.00,,,0.00,VWS V14.01,2013-10-03 06:05:00,
2013-10-03 00:10:00,49.2,35.1,26.87,North,0,0.0,0.0,58,0.00,,,0.00,VWS V14.01,2013-10-03 06:10:00,
2013-10-03 00:15:00,49.2,35.5,26.86,North,0,0.0,0.0,59,0.00,,,0.00,VWS V14.01,2013-10-03 06:15:00,
2013-10-03 00:20:00,49.2,35.5,26.87,North,0,0.0,0.0,59,0.00,,,0.00,VWS V14.01,2013-10-03 06:20:00,
2013-10-03 00:25:00,49.2,35.5,26.86,North,0,0.0,0.0,59,0.00,,,0.00,VWS V14.01,2013-10-03 06:25:00,
2013-10-03 00:30:00,49.2,35.9,26.86,North,0,0.0,0.0,60,0.00,,,0.00,VWS V14.01,2013-10-03 06:30:00,
2013-10-03 00:35:00,49.2,35.5,26.86,North,0,0.0,0.0,59,0.00,,,0.00,VWS V14.01,2013-10-03 06:35:00,
2013-10-03 00:40:00,49.2,35.9,26.87,WNW,292,0.0,0.0,60,0.00,,,0.00,VWS V14.01,2013-10-03 06:40:00,
2013-10-03 00:45:00,49.2,36.3,26.86,NNE,22,1.7,1.7,61,0.00,,,0.00,VWS V14.01,2013-10-03 06:45:00,
2013-10-03 00:50:00,49.2,36.3,26.86,NE,45,0.0,1.7,61,0.00,,,0.00,VWS V14.01,2013-10-03 06:50:00,
2013-10-03 00:55:00,49.2,35.9,26.86,WNW,292,0.0,1.7,60,0.00,,,0.00,VWS V14.01,2013-10-03 06:55:00,
2013-10-03 01:00:00,49.2,36.3,26.86,WNW,292,0.0,1.7,61,0.00,,,0.00,VWS V14.01,2013-10-03 07:00:00,
2013-10-03 01:05:00,49.2,36.3,26.86,WNW,292,0.0,0.0,61,0.00,,,0.00,VWS V14.01,2013-10-03 07:05:00,
2013-10-03 01:10:00,49.2,36.3,26.86,West,270,0.0,0.0,61,0.00,,,0.00,VWS V14.01,2013-10-03 07:10:00,
2013-10-03 01:15:00,49.2,36.3,26.86,WSW,248,0.0,0.0,61,0.00,,,0.00,VWS V14.01,2013-10-03 07:15:00,
2013-10-03 01:20:00,49.2,36.8,26.87,SSW,202,0.0,0.0,62,0.00,,,0.00,VWS V14.01,2013-10-03 07:20:00,
2013-10-03 01:25:00,49.1,37.1,26.87,WSW,248,2.9,2.9,63,0.00,,,0.00,VWS V14.01,2013-10-03 07:25:00,
2013-10-03 01:30:00,49.1,37.5,26.87,West,270,2.6,2.6,64,0.00,,,0.00,VWS V14.01,2013-10-03 07:30:00,
2013-10-03 01:35:00,48.9,36.9,26.87,West,270,0.0,2.9,63,0.00,,,0.00,VWS V14.01,2013-10-03 07:35:00,
2013-10-03 01:40:00,49.1,37.1,26.88,WNW,292,0.0,2.9,63,0.00,,,0.00,VWS V14.01,2013-10-03 07:40:00,
2013-10-03 01:45:00,49.2,37.2,26.86,NNW,338,1.7,1.7,63,0.00,,,0.00,VWS V14.01,2013-10-03 07:45:00,
2013-10-03 01:50:00,49.4,37.3,26.88,WNW,292,2.2,2.2,63,0.00,,,0.00,VWS V14.01,2013-10-03 07:50:00,
2013-10-03 01:55:00,49.6,37.9,26.88,NW,315,0.0,2.2,64,0.00,,,0.00,VWS V14.01,2013-10-03 07:55:00,
2013-10-03 02:00:00,49.6,38.3,26.87,NNW,338,2.6,2.6,65,0.00,,,0.00,VWS V14.01,2013-10-03 08:00:00,
2013-10-03 02:05:00,49.6,38.7,26.86,NNE,22,1.3,2.6,66,0.00,,,0.00,VWS V14.01,2013-10-03 08:05:00,
2013-10-03 02:11:00,49.4,38.9,26.86,NNE,22,1.5,2.6,67,0.00,,,0.00,VWS V14.01,2013-10-03 08:11:00,
2013-10-03 02:16:00,49.2,38.7,26.86,NW,315,0.0,0.0,67,0.00,,,0.00,VWS V14.01,2013-10-03 08:16:00,
2013-10-03 02:21:00,49.2,39.1,26.87,NW,315,0.0,0.0,68,0.00,,,0.00,VWS V14.01,2013-10-03 08:21:00,
2013-10-03 02:26:00,49.2,39.5,26.87,NNW,338,0.0,0.0,69,0.00,,,0.00,VWS V14.01,2013-10-03 08:26:00,
2013-10-03 02:31:00,49.2,39.8,26.86,NNW,338,1.7,1.7,70,0.00,,,0.00,VWS V14.01,2013-10-03 08:31:00,
2013-10-03 02:36:00,49.2,40.2,26.87,NW,315,1.3,2.0,71,0.00,,,0.00,VWS V14.01,2013-10-03 08:36:00,
2013-10-03 02:42:00,49.2,39.8,26.86,NNW,338,0.0,2.0,70,0.00,,,0.00,VWS V14.01,2013-10-03 08:42:00,
2013-10-03 02:47:00,49.2,39.8,26.86,NNW,338,0.0,0.0,70,0.00,,,0.00,VWS V14.01,2013-10-03 08:47:00,
2013-10-03 02:52:00,49.2,39.8,26.86,NNW,338,0.0,0.0,70,0.00,,,0.00,VWS V14.01,2013-10-03 08:52:00,
2013-10-03 02:57:00,49.2,40.2,26.86,NW,315,0.0,0.6,71,0.00,,,0.00,VWS V14.01,2013-10-03 08:57:00,
2013-10-03 03:02:00,49.2,40.2,26.86,NW,315,0.0,0.0,71,0.00,,,0.00,VWS V14.01,2013-10-03 09:02:00,
2013-10-03 03:07:00,49.2,40.2,26.86,NW,315,0.0,0.0,71,0.00,,,0.00,VWS V14.01,2013-10-03 09:07:00,
2013-10-03 03:12:00,49.2,40.2,26.86,WNW,292,0.0,0.0,71,0.00,,,0.00,VWS V14.01,2013-10-03 09:12:00,
2013-10-03 03:17:00,49.2,40.2,26.86,WNW,292,0.0,0.0,71,0.00,,,0.00,VWS V14.01,2013-10-03 09:17:00,
2013-10-03 03:22:00,49.2,40.2,26.86,WNW,292,0.0,0.0,71,0.00,,,0.00,VWS V14.01,2013-10-03 09:22:00,
2013-10-03 03:27:00,49.1,40.8,26.86,WSW,248,0.6,1.5,73,0.00,,,0.00,VWS V14.01,2013-10-03 09:27:00,
2013-10-03 03:32:00,48.9,41.0,26.85,West,270,0.0,0.6,74,0.00,,,0.00,VWS V14.01,2013-10-03 09:32:00,
2013-10-03 03:37:00,48.7,41.1,26.86,WSW,248,0.0,0.6,75,0.00,,,0.00,VWS V14.01,2013-10-03 09:37:00,
2013-10-03 03:42:00,48.7,41.1,26.86,West,270,0.0,0.6,75,0.00,,,0.00,VWS V14.01,2013-10-03 09:42:00,
2013-10-03 03:47:00,48.5,41.0,26.86,West,270,0.0,0.0,75,0.00,,,0.00,VWS V14.01,2013-10-03 09:47:00,
2013-10-03 03:52:00,48.5,40.6,26.85,West,270,0.0,0.0,74,0.00,,,0.00,VWS V14.01,2013-10-03 09:52:00,
2013-10-03 03:57:00,48.5,40.6,26.85,West,270,0.0,0.0,74,0.00,,,0.00,VWS V14.01,2013-10-03 09:57:00,
2013-10-03 04:02:00,48.5,40.6,26.85,West,270,0.0,0.0,74,0.00,,,0.00,VWS V14.01,2013-10-03 10:02:00,
2013-10-03 04:07:00,48.5,41.0,26.86,West,270,0.0,0.0,75,0.00,,,0.00,VWS V14.01,2013-10-03 10:07:00,
2013-10-03 04:12:00,48.5,41.0,26.86,WNW,292,0.0,0.0,75,0.00,,,0.00,VWS V14.01,2013-10-03 10:12:00,
2013-10-03 04:17:00,48.5,41.3,26.86,WNW,292,0.0,0.0,76,0.00,,,0.00,VWS V14.01,2013-10-03 10:17:00,
2013-10-03 04:22:00,48.7,41.5,26.86,WNW,292,0.0,0.0,76,0.00,,,0.00,VWS V14.01,2013-10-03 10:22:00,
2013-10-03 04:27:00,48.7,41.5,26.87,WNW,292,0.0,0.0,76,0.00,,,0.00,VWS V14.01,2013-10-03 10:27:00,
2013-10-03 04:32:00,48.7,41.5,26.88,WNW,292,0.0,2.4,76,0.00,,,0.00,VWS V14.01,2013-10-03 10:32:00,
2013-10-03 04:37:00,48.7,41.1,26.87,NW,315,0.0,2.4,75,0.00,,,0.00,VWS V14.01,2013-10-03 10:37:00,
2013-10-03 04:42:00,48.9,41.3,26.87,WNW,292,1.1,2.4,75,0.00,,,0.00,VWS V14.01,2013-10-03 10:42:00,
2013-10-03 04:48:00,48.9,41.3,26.86,NW,315,0.0,1.3,75,0.00,,,0.00,VWS V14.01,2013-10-03 10:48:00,
2013-10-03 04:53:00,48.9,41.0,26.86,NW,315,0.0,1.3,74,0.00,,,0.00,VWS V14.01,2013-10-03 10:53:00,
2013-10-03 04:58:00,48.9,41.0,26.87,NW,315,0.0,1.3,74,0.00,,,0.00,VWS V14.01,2013-10-03 10:58:00,
2013-10-03 05:03:00,48.9,41.0,26.86,NW,315,0.0,0.0,74,0.00,,,0.00,VWS V14.01,2013-10-03 11:03:00,
2013-10-03 05:08:00,48.7,40.8,26.86,WNW,292,0.0,4.0,74,0.00,,,0.00,VWS V14.01,2013-10-03 11:08:00,
2013-10-03 05:13:00,48.9,41.0,26.87,NW,315,3.5,4.0,74,0.00,,,0.00,VWS V14.01,2013-10-03 11:13:00,
2013-10-03 05:18:00,48.7,40.8,26.88,NW,315,5.3,5.3,74,0.00,,,0.00,VWS V14.01,2013-10-03 11:18:00,
2013-10-03 05:23:00,48.7,40.8,26.88,NW,315,3.1,5.8,74,0.00,,,0.00,VWS V14.01,2013-10-03 11:23:00,
2013-10-03 05:28:00,48.5,40.6,26.88,NNW,338,8.7,8.7,74,0.00,,,0.00,VWS V14.01,2013-10-03 11:28:00,
2013-10-03 05:33:00,48.5,41.0,26.88,North,0,7.8,7.8,75,0.00,,,0.00,VWS V14.01,2013-10-03 11:33:00,
2013-10-03 05:38:00,48.2,40.7,26.88,NNW,338,2.9,7.8,75,0.00,,,0.00,VWS V14.01,2013-10-03 11:38:00,
2013-10-03 05:43:00,48.0,40.5,26.88,North,0,5.1,7.8,75,0.00,,,0.00,VWS V14.01,2013-10-03 11:43:00,
2013-10-03 05:48:00,48.0,40.5,26.88,NNW,338,3.5,7.1,75,0.00,,,0.00,VWS V14.01,2013-10-03 11:48:00,
2013-10-03 05:53:00,48.0,40.8,26.87,North,0,7.8,7.8,76,0.00,,,0.00,VWS V14.01,2013-10-03 11:53:00,
2013-10-03 05:58:00,48.0,40.8,26.88,NW,315,6.0,7.8,76,0.00,,,0.00,VWS V14.01,2013-10-03 11:58:00,
2013-10-03 06:03:00,48.0,41.2,26.88,NNW,338,5.1,5.1,77,0.00,,,0.00,VWS V14.01,2013-10-03 12:03:00,
2013-10-03 06:08:00,47.8,41.0,26.87,North,0,6.9,6.9,77,0.00,,,0.00,VWS V14.01,2013-10-03 12:08:00,
2013-10-03 06:13:00,47.6,40.8,26.87,NW,315,8.9,9.1,77,0.00,,,0.00,VWS V14.01,2013-10-03 12:13:00,
2013-10-03 06:18:00,47.6,41.1,26.87,NNW,338,7.6,7.6,78,0.00,,,0.00,VWS V14.01,2013-10-03 12:18:00,
2013-10-03 06:23:00,47.4,40.6,26.87,NNW,338,6.4,7.6,77,0.00,,,0.00,VWS V14.01,2013-10-03 12:23:00,
2013-10-03 06:28:00,47.3,40.5,26.87,North,0,1.1,7.6,77,0.00,,,0.00,VWS V14.01,2013-10-03 12:28:00,
2013-10-03 06:33:00,47.1,40.3,26.87,NNW,338,3.1,6.7,77,0.00,,,0.00,VWS V14.01,2013-10-03 12:33:00,
2013-10-03 06:38:00,46.9,40.4,26.87,North,0,5.3,6.7,78,0.00,,,0.00,VWS V14.01,2013-10-03 12:38:00,
2013-10-03 06:43:00,46.7,40.2,26.88,NNW,338,5.5,6.7,78,0.00,,,0.00,VWS V14.01,2013-10-03 12:43:00,
2013-10-03 06:48:00,46.7,40.2,26.88,North,0,4.9,4.9,78,0.00,,,0.00,VWS V14.01,2013-10-03 12:48:00,
2013-10-03 06:53:00,46.7,40.5,26.87,NNW,338,6.7,7.3,79,0.00,,,0.00,VWS V14.01,2013-10-03 12:53:00,
2013-10-03 06:58:00,46.7,40.5,26.87,NW,315,7.6,9.3,79,0.00,,,0.00,VWS V14.01,2013-10-03 12:58:00,
2013-10-03 07:03:00,46.7,40.5,26.87,NNW,338,7.3,7.3,79,0.00,,,0.00,VWS V14.01,2013-10-03 13:03:00,
2013-10-03 07:08:00,46.7,40.5,26.88,NNW,338,5.8,9.6,79,0.00,,,0.00,VWS V14.01,2013-10-03 13:08:00,
2013-10-03 07:13:00,46.7,40.9,26.88,NNW,338,6.0,9.6,80,0.00,,,0.00,VWS V14.01,2013-10-03 13:13:00,
2013-10-03 07:18:00,46.7,40.9,26.88,North,0,4.2,4.2,80,0.00,,,0.00,VWS V14.01,2013-10-03 13:18:00,
2013-10-03 07:23:00,46.9,41.1,26.88,NNE,22,6.7,6.7,80,0.00,,,0.00,VWS V14.01,2013-10-03 13:23:00,
2013-10-03 07:28:00,46.9,41.1,26.88,NNW,338,5.5,6.7,80,0.00,,,0.00,VWS V14.01,2013-10-03 13:28:00,
2013-10-03 07:33:00,46.9,41.1,26.87,NNW,338,6.4,6.4,80,0.00,,,0.00,VWS V14.01,2013-10-03 13:33:00,
2013-10-03 07:38:00,47.1,41.3,26.88,NW,315,4.9,6.4,80,0.00,,,0.00,VWS V14.01,2013-10-03 13:38:00,
2013-10-03 07:43:00,47.3,41.5,26.88,NNW,338,5.1,6.4,80,0.00,,,0.00,VWS V14.01,2013-10-03 13:43:00,
2013-10-03 07:48:00,47.6,41.8,26.87,WNW,292,4.6,5.1,80,0.00,,,0.00,VWS V14.01,2013-10-03 13:48:00,
2013-10-03 07:53:00,47.8,41.9,26.86,NNW,338,2.9,5.1,80,0.00,,,0.00,VWS V14.01,2013-10-03 13:53:00,
2013-10-03 07:58:00,48.2,42.0,26.87,NNW,338,4.2,5.1,79,0.00,,,0.00,VWS V14.01,2013-10-03 13:58:00,
2013-10-03 08:03:00,48.5,42.3,26.87,NW,315,0.0,5.1,79,0.00,,,0.00,VWS V14.01,2013-10-03 14:03:00,
2013-10-03 08:08:00,48.9,42.7,26.87,NNW,338,1.7,5.1,79,0.00,,,0.00,VWS V14.01,2013-10-03 14:08:00,
2013-10-03 08:13:00,49.2,42.6,26.87,NW,315,6.2,6.2,78,0.00,,,0.00,VWS V14.01,2013-10-03 14:13:00,
2013-10-03 08:18:00,49.2,42.6,26.87,North,0,2.0,4.9,78,0.00,,,0.00,VWS V14.01,2013-10-03 14:18:00,
2013-10-03 08:23:00,49.1,42.5,26.87,North,0,4.2,4.9,78,0.00,,,0.00,VWS V14.01,2013-10-03 14:23:00,
2013-10-03 08:28:00,49.1,42.5,26.88,NNW,338,2.0,6.0,78,0.00,,,0.00,VWS V14.01,2013-10-03 14:28:00,
2013-10-03 08:33:00,48.9,42.3,26.88,NNW,338,0.6,2.4,78,0.00,,,0.00,VWS V14.01,2013-10-03 14:33:00,
2013-10-03 08:38:00,48.7,41.8,26.88,NNW,338,4.4,4.4,77,0.00,,,0.00,VWS V14.01,2013-10-03 14:38:00,
2013-10-03 08:44:00,48.7,42.2,26.88,WNW,292,4.0,4.4,78,0.00,,,0.00,VWS V14.01,2013-10-03 14:44:00,
2013-10-03 08:49:00,49.1,42.5,26.88,WNW,292,3.5,4.0,78,0.00,,,0.00,VWS V14.01,2013-10-03 14:49:00,
2013-10-03 08:54:00,49.2,42.6,26.88,NNW,338,4.6,4.6,78,0.00,,,0.00,VWS V14.01,2013-10-03 14:54:00,
2013-10-03 08:59:00,49.6,43.0,26.88,NNW,338,0.0,4.6,78,0.00,,,0.00,VWS V14.01,2013-10-03 14:59:00,
2013-10-03 09:04:00,49.8,42.9,26.88,NNW,338,6.2,6.2,77,0.00,,,0.00,VWS V14.01,2013-10-03 15:04:00,
2013-10-03 09:09:00,50.1,42.8,26.87,NW,315,6.2,7.8,76,0.00,,,0.00,VWS V14.01,2013-10-03 15:09:00,
2013-10-03 09:14:00,50.1,42.8,26.87,NW,315,5.1,7.8,76,0.00,,,0.00,VWS V14.01,2013-10-03 15:14:00,
2013-10-03 09:19:00,50.5,43.2,26.87,NW,315,2.0,5.1,76,0.00,,,0.00,VWS V14.01,2013-10-03 15:19:00,
2013-10-03 09:24:00,50.7,43.1,26.88,NNW,338,6.0,6.0,75,0.00,,,0.00,VWS V14.01,2013-10-03 15:24:00,
2013-10-03 09:29:00,51.9,43.9,26.88,NNW,338,9.8,9.8,74,0.00,,,0.00,VWS V14.01,2013-10-03 15:29:00,
2013-10-03 09:34:00,52.5,44.1,26.88,NNW,338,0.0,9.8,73,0.00,,,0.00,VWS V14.01,2013-10-03 15:34:00,
2013-10-03 09:39:00,52.7,43.9,26.89,North,0,3.1,9.8,72,0.00,,,0.00,VWS V14.01,2013-10-03 15:39:00,
2013-10-03 09:44:00,52.5,43.4,26.90,North,0,5.1,9.8,71,0.00,,,0.00,VWS V14.01,2013-10-03 15:44:00,
2013-10-03 09:49:00,52.1,42.6,26.89,North,0,8.5,8.5,70,0.00,,,0.00,VWS V14.01,2013-10-03 15:49:00,
2013-10-03 09:54:00,51.6,42.2,26.89,NNW,338,8.7,10.5,70,0.00,,,0.00,VWS V14.01,2013-10-03 15:54:00,
2013-10-03 09:59:00,51.0,41.6,26.89,WNW,292,4.0,10.5,70,0.00,,,0.00,VWS V14.01,2013-10-03 15:59:00,
2013-10-03 10:04:00,50.7,41.7,26.88,North,0,6.9,6.9,71,0.00,,,0.00,VWS V14.01,2013-10-03 16:04:00,
2013-10-03 10:09:00,50.7,42.0,26.88,NNW,338,12.3,12.3,72,0.00,,,0.00,VWS V14.01,2013-10-03 16:09:00,
2013-10-03 10:14:00,50.7,41.7,26.88,NNW,338,6.7,12.3,71,0.00,,,0.00,VWS V14.01,2013-10-03 16:14:00,
2013-10-03 10:19:00,50.5,41.1,26.88,NNW,338,5.8,8.2,70,0.00,,,0.00,VWS V14.01,2013-10-03 16:19:00,
2013-10-03 10:24:00,50.3,40.9,26.88,North,0,7.3,8.2,70,0.00,,,0.00,VWS V14.01,2013-10-03 16:24:00,
2013-10-03 10:29:00,50.1,41.1,26.88,NNW,338,6.4,9.8,71,0.00,,,0.00,VWS V14.01,2013-10-03 16:29:00,
2013-10-03 10:34:00,50.5,41.5,26.88,North,0,6.7,8.7,71,0.00,,,0.00,VWS V14.01,2013-10-03 16:34:00,
2013-10-03 10:39:00,50.5,41.1,26.88,North,0,7.8,8.7,70,0.00,,,0.00,VWS V14.01,2013-10-03 16:39:00,
2013-10-03 10:44:00,50.7,41.3,26.88,NW,315,6.4,8.9,70,0.00,,,0.00,VWS V14.01,2013-10-03 16:44:00,
2013-10-03 10:49:00,50.9,41.1,26.87,WNW,292,5.1,5.8,69,0.00,,,0.00,VWS V14.01,2013-10-03 16:49:00,
2013-10-03 10:54:00,51.4,41.6,26.88,North,0,8.2,8.2,69,0.00,,,0.00,VWS V14.01,2013-10-03 16:54:00,
2013-10-03 10:59:00,51.6,41.4,26.87,NNW,338,5.8,8.2,68,0.00,,,0.00,VWS V14.01,2013-10-03 16:59:00,
2013-10-03 11:04:00,51.8,41.2,26.87,NNE,22,5.5,5.8,67,0.00,,,0.00,VWS V14.01,2013-10-03 17:04:00,
2013-10-03 11:09:00,51.9,41.3,26.87,NE,45,9.1,9.3,67,0.00,,,0.00,VWS V14.01,2013-10-03 17:09:00,
2013-10-03 11:14:00,52.1,41.5,26.86,North,0,10.2,10.2,67,0.00,,,0.00,VWS V14.01,2013-10-03 17:14:00,
2013-10-03 11:19:00,52.3,41.3,26.86,ENE,68,6.9,10.2,66,0.00,,,0.00,VWS V14.01,2013-10-03 17:19:00,
2013-10-03 11:24:00,52.5,41.5,26.86,North,0,9.3,10.2,66,0.00,,,0.00,VWS V14.01,2013-10-03 17:24:00,
2013-10-03 11:29:00,52.3,40.9,26.86,NE,45,6.7,10.9,65,0.00,,,0.00,VWS V14.01,2013-10-03 17:29:00,
2013-10-03 11:34:00,52.3,40.9,26.86,North,0,7.1,7.1,65,0.00,,,0.00,VWS V14.01,2013-10-03 17:34:00,
2013-10-03 11:39:00,52.3,40.9,26.86,NE,45,7.1,8.2,65,0.00,,,0.00,VWS V14.01,2013-10-03 17:39:00,
2013-10-03 11:44:00,52.3,40.9,26.86,North,0,2.4,8.2,65,0.00,,,0.00,VWS V14.01,2013-10-03 17:44:00,
2013-10-03 11:49:00,52.3,40.9,26.87,NE,45,4.6,4.6,65,0.00,,,0.00,VWS V14.01,2013-10-03 17:49:00,
2013-10-03 11:54:00,52.3,40.1,26.87,ENE,68,4.4,8.9,63,0.00,,,0.00,VWS V14.01,2013-10-03 17:54:00,
2013-10-03 11:59:00,52.3,40.1,26.87,ENE,68,8.7,8.9,63,0.00,,,0.00,VWS V14.01,2013-10-03 17:59:00,
2013-10-03 12:04:00,52.3,40.1,26.87,NE,45,13.1,13.1,63,0.00,,,0.00,VWS V14.01,2013-10-03 18:04:00,
2013-10-03 12:09:00,52.1,39.9,26.86,NE,45,7.6,13.1,63,0.00,,,0.00,VWS V14.01,2013-10-03 18:09:00,
2013-10-03 12:14:00,52.3,40.1,26.86,SE,135,5.1,13.1,63,0.00,,,0.00,VWS V14.01,2013-10-03 18:14:00,
2013-10-03 12:19:00,52.3,40.1,26.86,ENE,68,8.5,8.5,63,0.00,,,0.00,VWS V14.01,2013-10-03 18:19:00,
2013-10-03 12:24:00,52.3,40.1,26.87,NE,45,8.5,8.7,63,0.00,,,0.00,VWS V14.01,2013-10-03 18:24:00,
2013-10-03 12:30:00,52.3,40.1,26.86,North,0,10.5,10.5,63,0.00,,,0.00,VWS V14.01,2013-10-03 18:30:00,
2013-10-03 12:35:00,52.1,39.9,26.86,NNE,22,7.3,10.5,63,0.00,,,0.00,VWS V14.01,2013-10-03 18:35:00,
2013-10-03 12:40:00,51.9,39.7,26.86,NE,45,3.5,10.5,63,0.00,,,0.00,VWS V14.01,2013-10-03 18:40:00,
2013-10-03 12:45:00,52.1,39.9,26.86,ENE,68,6.0,10.5,63,0.00,,,0.00,VWS V14.01,2013-10-03 18:45:00,
2013-10-03 12:50:00,52.1,39.5,26.86,ENE,68,7.8,8.7,62,0.00,,,0.00,VWS V14.01,2013-10-03 18:50:00,
2013-10-03 12:55:00,52.1,39.5,26.86,NE,45,11.1,11.4,62,0.00,,,0.00,VWS V14.01,2013-10-03 18:55:00,
2013-10-03 13:00:00,52.1,39.1,26.87,ENE,68,7.8,11.4,61,0.00,,,0.00,VWS V14.01,2013-10-03 19:00:00,
2013-10-03 13:05:00,52.3,39.3,26.87,ENE,68,9.8,9.8,61,0.00,,,0.00,VWS V14.01,2013-10-03 19:05:00,
2013-10-03 13:10:00,52.3,38.8,26.87,NNW,338,8.2,9.8,60,0.00,,,0.00,VWS V14.01,2013-10-03 19:10:00,
2013-10-03 13:15:00,52.1,37.8,26.87,ENE,68,8.5,9.8,58,0.00,,,0.00,VWS V14.01,2013-10-03 19:15:00,
2013-10-03 13:20:00,52.3,38.0,26.87,East,90,9.1,9.6,58,0.00,,,0.00,VWS V14.01,2013-10-03 19:20:00,
2013-10-03 13:25:00,52.1,37.3,26.86,NE,45,10.9,10.9,57,0.00,,,0.00,VWS V14.01,2013-10-03 19:25:00,
2013-10-03 13:30:00,52.1,37.3,26.86,East,90,9.1,11.8,57,0.00,,,0.00,VWS V14.01,2013-10-03 19:30:00,
2013-10-03 13:35:00,52.1,37.3,26.86,East,90,9.6,11.1,57,0.00,,,0.00,VWS V14.01,2013-10-03 19:35:00,
2013-10-03 13:40:00,52.1,37.3,26.85,ENE,68,6.9,12.0,57,0.00,,,0.00,VWS V14.01,2013-10-03 19:40:00,
2013-10-03 13:45:00,52.1,37.3,26.85,NE,45,9.6,12.0,57,0.00,,,0.00,VWS V14.01,2013-10-03 19:45:00,
2013-10-03 13:50:00,52.3,37.1,26.85,East,90,10.2,10.2,56,0.00,,,0.00,VWS V14.01,2013-10-03 19:50:00,
2013-10-03 13:55:00,52.3,37.5,26.85,ENE,68,11.1,11.1,57,0.00,,,0.00,VWS V14.01,2013-10-03 19:55:00,
2013-10-03 14:00:00,52.5,37.7,26.85,East,90,4.2,11.1,57,0.00,,,0.00,VWS V14.01,2013-10-03 20:00:00,
2013-10-03 14:05:00,52.5,37.7,26.86,East,90,7.3,9.3,57,0.00,,,0.00,VWS V14.01,2013-10-03 20:05:00,
2013-10-03 14:10:00,52.5,37.3,26.86,NNE,22,5.8,10.2,56,0.00,,,0.00,VWS V14.01,2013-10-03 20:10:00,
2013-10-03 14:15:00,52.3,37.1,26.86,NE,45,7.1,10.2,56,0.00,,,0.00,VWS V14.01,2013-10-03 20:15:00,
2013-10-03 14:20:00,52.3,37.1,26.86,ENE,68,6.4,7.1,56,0.00,,,0.00,VWS V14.01,2013-10-03 20:20:00,
2013-10-03 14:25:00,52.3,37.1,26.86,NE,45,8.9,9.6,56,0.00,,,0.00,VWS V14.01,2013-10-03 20:25:00,
2013-10-03 14:30:00,52.3,37.1,26.86,NE,45,11.4,11.4,56,0.00,,,0.00,VWS V14.01,2013-10-03 20:30:00,
2013-10-03 14:35:00,52.1,36.9,26.86,NNE,22,10.9,11.4,56,0.00,,,0.00,VWS V14.01,2013-10-03 20:35:00,
2013-10-03 14:40:00,51.9,36.7,26.86,NNE,22,10.5,11.4,56,0.00,,,0.00,VWS V14.01,2013-10-03 20:40:00,
2013-10-03 14:45:00,51.9,36.7,26.86,NE,45,11.6,15.6,56,0.00,,,0.00,VWS V14.01,2013-10-03 20:45:00,
2013-10-03 14:50:00,51.9,36.7,26.86,North,0,22.8,22.8,56,0.00,,,0.00,VWS V14.01,2013-10-03 20:50:00,
2013-10-03 14:55:00,51.9,36.7,26.86,ENE,68,11.6,22.8,56,0.00,,,0.00,VWS V14.01,2013-10-03 20:55:00,
2013-10-03 15:00:00,51.9,36.7,26.86,ENE,68,9.6,9.6,56,0.00,,,0.00,VWS V14.01,2013-10-03 21:00:00,
2013-10-03 15:05:00,51.8,37.1,26.86,NE,45,10.2,12.0,57,0.00,,,0.00,VWS V14.01,2013-10-03 21:05:00,
2013-10-03 15:10:00,51.6,37.8,26.85,NE,45,13.4,19.6,59,0.00,,,0.00,VWS V14.01,2013-10-03 21:10:00,
2013-10-03 15:15:00,51.4,37.6,26.86,NNE,22,18.1,18.1,59,0.00,,,0.00,VWS V14.01,2013-10-03 21:15:00,
2013-10-03 15:21:00,51.4,38.0,26.86,NNE,22,14.3,18.1,60,0.00,,,0.00,VWS V14.01,2013-10-03 21:21:00,
2013-10-03 15:26:00,51.4,38.0,26.86,East,90,10.2,18.1,60,0.00,,,0.00,VWS V14.01,2013-10-03 21:26:00,
2013-10-03 15:31:00,51.2,38.2,26.87,NE,45,7.8,7.8,61,0.00,,,0.00,VWS V14.01,2013-10-03 21:31:00,
2013-10-03 15:36:00,51.0,38.0,26.86,NNE,22,10.9,11.1,61,0.00,,,0.00,VWS V14.01,2013-10-03 21:36:00,
2013-10-03 15:41:00,50.9,38.0,26.84,ENE,68,11.4,12.0,61,0.00,,,0.00,VWS V14.01,2013-10-03 21:41:00,
2013-10-03 15:46:00,51.0,37.6,26.85,ENE,68,8.2,8.2,60,0.00,,,0.00,VWS V14.01,2013-10-03 21:46:00,
2013-10-03 15:51:00,51.0,37.2,26.86,SE,135,5.1,11.1,59,0.00,,,0.00,VWS V14.01,2013-10-03 21:51:00,
2013-10-03 15:56:00,51.0,37.2,26.86,ENE,68,9.1,11.1,59,0.00,,,0.00,VWS V14.01,2013-10-03 21:56:00,
2013-10-03 16:01:00,51.0,36.8,26.87,ENE,68,13.1,13.1,58,0.00,,,0.00,VWS V14.01,2013-10-03 22:01:00,
2013-10-03 16:06:00,51.0,37.2,26.88,NE,45,5.3,14.0,59,0.00,,,0.00,VWS V14.01,2013-10-03 22:06:00,
2013-10-03 16:11:00,51.0,37.2,26.88,NNE,22,9.3,14.0,59,0.00,,,0.00,VWS V14.01,2013-10-03 22:11:00,
2013-10-03 16:16:00,51.0,37.6,26.88,NE,45,14.3,14.3,60,0.00,,,0.00,VWS V14.01,2013-10-03 22:16:00,
2013-10-03 16:21:00,51.0,37.6,26.87,ENE,68,8.2,14.3,60,0.00,,,0.00,VWS V14.01,2013-10-03 22:21:00,
2013-10-03 16:26:00,51.0,38.5,26.87,ENE,68,8.0,14.3,62,0.00,,,0.00,VWS V14.01,2013-10-03 22:26:00,
2013-10-03 16:31:00,50.9,38.8,26.87,ENE,68,9.6,9.6,63,0.00,,,0.00,VWS V14.01,2013-10-03 22:31:00,
2013-10-03 16:36:00,50.7,39.0,26.87,ENE,68,6.9,9.6,64,0.00,,,0.00,VWS V14.01,2013-10-03 22:36:00,
2013-10-03 16:41:00,50.3,39.4,26.87,ENE,68,8.5,9.6,66,0.00,,,0.00,VWS V14.01,2013-10-03 22:41:00,
2013-10-03 16:46:00,50.1,39.2,26.88,ENE,68,5.3,5.3,66,0.00,,,0.00,VWS V14.01,2013-10-03 22:46:00,
2013-10-03 16:51:00,49.8,38.9,26.88,ENE,68,4.4,7.6,66,0.00,,,0.00,VWS V14.01,2013-10-03 22:51:00,
2013-10-03 16:56:00,49.8,38.9,26.88,East,90,6.4,8.0,66,0.00,,,0.00,VWS V14.01,2013-10-03 22:56:00,
2013-10-03 17:01:00,49.8,38.9,26.88,East,90,6.9,6.9,66,0.00,,,0.00,VWS V14.01,2013-10-03 23:01:00,
2013-10-03 17:06:00,49.6,38.7,26.88,East,90,5.8,9.3,66,0.00,,,0.00,VWS V14.01,2013-10-03 23:06:00,
2013-10-03 17:11:00,49.8,38.9,26.88,NE,45,7.3,9.6,66,0.00,,,0.00,VWS V14.01,2013-10-03 23:11:00,
2013-10-03 17:16:00,49.8,38.9,26.88,ENE,68,8.9,8.9,66,0.00,,,0.00,VWS V14.01,2013-10-03 23:16:00,
2013-10-03 17:21:00,49.6,38.7,26.89,ENE,68,14.3,14.3,66,0.00,,,0.00,VWS V14.01,2013-10-03 23:21:00,
2013-10-03 17:26:00,49.6,39.1,26.89,ENE,68,11.4,14.3,67,0.00,,,0.00,VWS V14.01,2013-10-03 23:26:00,
2013-10-03 17:31:00,49.2,38.7,26.89,ENE,68,10.7,10.7,67,0.00,,,0.00,VWS V14.01,2013-10-03 23:31:00,
2013-10-03 17:36:00,49.2,39.1,26.89,ENE,68,8.2,10.7,68,0.00,,,0.00,VWS V14.01,2013-10-03 23:36:00,
2013-10-03 17:41:00,48.9,39.2,26.89,ENE,68,11.1,12.9,69,0.00,,,0.00,VWS V14.01,2013-10-03 23:41:00,
2013-10-03 17:46:00,48.7,39.4,26.90,East,90,4.6,4.6,70,0.00,,,0.00,VWS V14.01,2013-10-03 23:46:00,
2013-10-03 17:51:00,48.3,39.7,26.90,ENE,68,9.1,9.8,72,0.00,,,0.00,VWS V14.01,2013-10-03 23:51:00,
2013-10-03 17:56:00,48.0,39.8,26.90,ENE,68,7.3,9.8,73,0.00,,,0.00,VWS V14.01,2013-10-03 23:56:00,
2013-10-03 18:01:00,48.0,39.8,26.91,NE,45,0.6,0.6,73,0.00,,,0.00,VWS V14.01,2013-10-04 00:01:00,
2013-10-03 18:06:00,47.8,39.6,26.91,ENE,68,0.0,1.1,73,0.00,,,0.00,VWS V14.01,2013-10-04 00:06:00,
2013-10-03 18:11:00,47.8,39.6,26.92,NNE,22,0.0,1.1,73,0.00,,,0.00,VWS V14.01,2013-10-04 00:11:00,
2013-10-03 18:16:00,47.6,39.4,26.92,NNE,22,0.0,0.0,73,0.00,,,0.00,VWS V14.01,2013-10-04 00:16:00,
2013-10-03 18:21:00,47.6,39.4,26.92,NNW,338,0.0,0.0,73,0.00,,,0.00,VWS V14.01,2013-10-04 00:21:00,
2013-10-03 18:27:00,47.6,39.7,26.92,NNW,338,0.0,0.0,74,0.00,,,0.00,VWS V14.01,2013-10-04 00:27:00,
2013-10-03 18:32:00,47.6,40.1,26.92,NNW,338,0.0,0.0,75,0.00,,,0.00,VWS V14.01,2013-10-04 00:32:00,
2013-10-03 18:37:00,47.4,40.2,26.92,ENE,68,1.7,1.7,76,0.00,,,0.00,VWS V14.01,2013-10-04 00:37:00,
2013-10-03 18:42:00,47.4,40.6,26.92,NNE,22,3.1,3.1,77,0.00,,,0.00,VWS V14.01,2013-10-04 00:42:00,
2013-10-03 18:47:00,47.3,40.5,26.92,NE,45,2.0,2.0,77,0.00,,,0.00,VWS V14.01,2013-10-04 00:47:00,
2013-10-03 18:52:00,47.1,40.3,26.92,North,0,0.0,2.0,77,0.00,,,0.00,VWS V14.01,2013-10-04 00:52:00,
2013-10-03 18:57:00,47.1,40.6,26.92,NE,45,2.0,2.0,78,0.00,,,0.00,VWS V14.01,2013-10-04 00:57:00,
2013-10-03 19:02:00,47.1,40.6,26.92,North,0,2.6,2.6,78,0.00,,,0.00,VWS V14.01,2013-10-04 01:02:00,
2013-10-03 19:07:00,46.9,40.7,26.92,NNE,22,5.5,5.5,79,0.00,,,0.00,VWS V14.01,2013-10-04 01:07:00,
2013-10-03 19:12:00,46.7,40.5,26.91,North,0,6.7,6.7,79,0.00,,,0.00,VWS V14.01,2013-10-04 01:12:00,
2013-10-03 19:17:00,46.5,40.3,26.91,North,0,5.8,5.8,79,0.00,,,0.00,VWS V14.01,2013-10-04 01:17:00,
2013-10-03 19:22:00,46.5,40.7,26.91,NNW,338,5.1,5.8,80,0.00,,,0.00,VWS V14.01,2013-10-04 01:22:00,
2013-10-03 19:27:00,46.4,40.6,26.92,NNW,338,5.5,8.9,80,0.00,,,0.00,VWS V14.01,2013-10-04 01:27:00,
2013-10-03 19:32:00,46.2,40.4,26.92,NW,315,4.6,4.6,80,0.00,,,0.00,VWS V14.01,2013-10-04 01:32:00,
2013-10-03 19:37:00,46.2,40.4,26.92,NW,315,3.5,6.7,80,0.00,,,0.00,VWS V14.01,2013-10-04 01:37:00,
2013-10-03 19:42:00,46.2,40.4,26.93,North,0,2.9,6.7,80,0.00,,,0.00,VWS V14.01,2013-10-04 01:42:00,
2013-10-03 19:47:00,46.2,40.7,26.93,North,0,0.6,0.6,81,0.00,,,0.00,VWS V14.01,2013-10-04 01:47:00,
2013-10-03 19:52:00,46.2,41.0,26.93,North,0,6.0,6.0,82,0.00,,,0.00,VWS V14.01,2013-10-04 01:52:00,
2013-10-03 19:57:00,46.2,41.0,26.93,NNW,338,7.1,8.5,82,0.00,,,0.00,VWS V14.01,2013-10-04 01:57:00,
2013-10-03 20:02:00,46.0,41.1,26.93,North,0,5.5,5.5,83,0.00,,,0.00,VWS V14.01,2013-10-04 02:02:00,
2013-10-03 20:07:00,46.0,41.1,26.94,NNW,338,3.5,5.5,83,0.00,,,0.00,VWS V14.01,2013-10-04 02:07:00,
2013-10-03 20:12:00,46.0,41.1,26.94,NNW,338,6.9,6.9,83,0.00,,,0.00,VWS V14.01,2013-10-04 02:12:00,
2013-10-03 20:17:00,46.0,41.4,26.93,North,0,9.8,9.8,84,0.00,,,0.00,VWS V14.01,2013-10-04 02:17:00,
2013-10-03 20:22:00,45.6,41.0,26.93,NE,45,12.7,12.7,84,0.00,,,0.00,VWS V14.01,2013-10-04 02:22:00,
2013-10-03 20:27:00,45.5,41.3,26.93,NE,45,10.5,12.7,85,0.00,,,0.00,VWS V14.01,2013-10-04 02:27:00,
2013-10-03 20:32:00,45.3,41.1,26.94,North,0,10.5,11.4,85,0.00,,,0.00,VWS V14.01,2013-10-04 02:32:00,
2013-10-03 20:37:00,45.3,41.1,26.94,NNE,22,5.8,11.4,85,0.00,,,0.00,VWS V14.01,2013-10-04 02:37:00,
2013-10-03 20:42:00,45.1,40.6,26.95,ENE,68,2.0,11.4,84,0.00,,,0.00,VWS V14.01,2013-10-04 02:42:00,
2013-10-03 20:47:00,45.1,40.6,26.95,North,0,6.2,6.2,84,0.00,,,0.00,VWS V14.01,2013-10-04 02:47:00,
2013-10-03 20:53:00,44.9,40.4,26.95,North,0,8.0,8.9,84,0.00,,,0.00,VWS V14.01,2013-10-04 02:53:00,
2013-10-03 20:58:00,45.1,40.9,26.95,North,0,6.2,8.9,85,0.00,,,0.00,VWS V14.01,2013-10-04 02:58:00,
2013-10-03 21:03:00,45.1,40.9,26.95,North,0,13.1,13.1,85,0.00,,,0.00,VWS V14.01,2013-10-04 03:03:00,
2013-10-03 21:08:00,44.9,40.7,26.95,NNW,338,12.7,13.1,85,0.00,,,0.00,VWS V14.01,2013-10-04 03:08:00,
2013-10-03 21:13:00,44.9,40.7,26.95,NNE,22,9.3,13.1,85,0.00,,,0.00,VWS V14.01,2013-10-04 03:13:00,
2013-10-03 21:18:00,44.9,40.7,26.95,North,0,15.6,15.6,85,0.00,,,0.00,VWS V14.01,2013-10-04 03:18:00,
2013-10-03 21:23:00,44.9,40.7,26.96,NW,315,9.6,15.6,85,0.00,,,0.00,VWS V14.01,2013-10-04 03:23:00,
2013-10-03 21:28:00,44.9,40.7,26.95,North,0,9.6,15.6,85,0.00,,,0.00,VWS V14.01,2013-10-04 03:28:00,
2013-10-03 21:33:00,44.9,40.7,26.94,North,0,9.8,9.8,85,0.00,,,0.00,VWS V14.01,2013-10-04 03:33:00,
2013-10-03 21:38:00,44.9,40.7,26.95,NNW,338,11.8,17.2,85,0.00,,,0.00,VWS V14.01,2013-10-04 03:38:00,
2013-10-03 21:43:00,44.9,40.7,26.95,NNE,22,10.2,19.9,85,0.00,,,0.00,VWS V14.01,2013-10-04 03:43:00,
2013-10-03 21:48:00,44.9,40.7,26.94,NNE,22,12.0,16.7,85,0.00,,,0.00,VWS V14.01,2013-10-04 03:48:00,
2013-10-03 21:53:00,44.9,40.7,26.94,ENE,68,16.7,16.7,85,0.00,,,0.00,VWS V14.01,2013-10-04 03:53:00,
2013-10-03 21:58:00,44.9,40.7,26.95,North,0,15.6,16.7,85,0.00,,,0.00,VWS V14.01,2013-10-04 03:58:00,
2013-10-03 22:33:00,44.9,40.7,26.96,NE,45,10.2,11.8,85,0.00,,,0.00,VWS V14.01,2013-10-04 04:33:00,
2013-10-03 22:35:00,44.9,40.7,26.95,NNE,22,14.3,14.3,85,0.00,,,0.00,VWS V14.01,2013-10-04 04:35:00,
2013-10-03 22:37:00,44.9,40.7,26.95,NNE,22,15.6,15.6,85,0.00,,,0.00,VWS V14.01,2013-10-04 04:37:00,
2013-10-03 22:43:00,44.9,40.7,26.96,North,0,10.2,15.6,85,0.00,,,0.00,VWS V14.01,2013-10-04 04:43:00,
2013-10-03 22:45:00,44.9,40.7,26.95,WNW,292,6.9,15.6,85,0.00,,,0.00,VWS V14.01,2013-10-04 04:45:00,
2013-10-03 22:47:00,44.9,40.7,26.95,ENE,68,18.3,18.3,85,0.00,,,0.00,VWS V14.01,2013-10-04 04:47:00,
2013-10-03 22:49:00,44.9,40.7,26.95,North,0,12.3,18.3,85,0.00,,,0.00,VWS V14.01,2013-10-04 04:49:00,
2013-10-03 22:54:00,44.9,40.7,26.94,NNE,22,15.2,18.3,85,0.00,,,0.00,VWS V14.01,2013-10-04 04:54:00,
2013-10-03 22:58:00,44.9,40.7,26.94,North,0,9.6,18.3,85,0.00,,,0.00,VWS V14.01,2013-10-04 04:58:00,
2013-10-03 23:02:00,44.9,40.7,26.95,NNW,338,19.6,19.6,85,0.00,,,0.00,VWS V14.01,2013-10-04 05:02:00,
2013-10-03 23:08:00,44.9,40.7,26.95,North,0,17.0,19.6,85,0.00,,,0.00,VWS V14.01,2013-10-04 05:08:00,
2013-10-03 23:10:00,44.9,40.7,26.96,North,0,9.6,19.6,85,0.00,,,0.00,VWS V14.01,2013-10-04 05:10:00,
2013-10-03 23:15:00,44.9,40.7,26.97,North,0,11.1,19.6,85,0.00,,,0.00,VWS V14.01,2013-10-04 05:15:00,
2013-10-03 23:16:00,44.9,40.7,26.97,North,0,11.1,11.1,85,0.00,,,0.00,VWS V14.01,2013-10-04 05:16:00,
2013-10-03 23:22:00,44.9,40.7,26.97,North,0,9.6,17.4,85,0.00,,,0.00,VWS V14.01,2013-10-04 05:22:00,
2013-10-03 23:28:00,44.9,40.7,26.96,North,0,13.8,17.4,85,0.00,,,0.00,VWS V14.01,2013-10-04 05:28:00,
2013-10-03 23:29:00,44.9,40.7,26.97,North,0,13.8,17.4,85,0.00,,,0.00,VWS V14.01,2013-10-04 05:29:00,
2013-10-03 23:34:00,44.9,40.7,26.96,NNW,338,13.1,15.4,85,0.00,,,0.00,VWS V14.01,2013-10-04 05:34:00,
2013-10-03 23:37:00,44.9,40.7,26.95,NNW,338,8.0,15.4,85,0.00,,,0.00,VWS V14.01,2013-10-04 05:37:00,
2013-10-03 23:42:00,44.9,40.7,26.96,NNW,338,12.7,15.4,85,0.00,,,0.00,VWS V14.01,2013-10-04 05:42:00,
2013-10-03 23:43:00,44.9,40.7,26.96,NNW,338,12.7,15.4,85,0.00,,,0.00,VWS V14.01,2013-10-04 05:43:00,
2013-10-03 23:49:00,44.9,40.7,26.97,NNW,338,14.3,14.3,85,0.00,,,0.00,VWS V14.01,2013-10-04 05:49:00,
2013-10-03 23:54:00,44.9,40.7,26.98,North,0,15.8,15.8,85,0.00,,,0.00,VWS V14.01,2013-10-04 05:54:00,
2013-10-03 23:59:00,44.9,40.7,26.98,North,0,10.7,15.8,85,0.00,,,0.00,VWS V14.01,2013-10-04 05:59:00,